| time (UTC) | temp F | wind direction | speed knots | gust knots | rain 1hr in | rain 24hr in | rain mn in | humidity % | barometer mb |
| 20260903195206 | 78 | 0.0 | 0.0 | 0.00 | 0.00 | 0.00 | 31 | 1016.8 | |
| 20260903194704 | 79 | 0.0 | 0.0 | 0.00 | 0.00 | 0.00 | 31 | 1016.9 | |
| 20260903194202 | 75 | 0.0 | 0.0 | 0.00 | 0.00 | 0.00 | 34 | 1016.9 | |
| 20260903193700 | 75 | 0.0 | 0.0 | 0.00 | 0.00 | 0.00 | 35 | 1016.9 | |
| 20260903193158 | 77 | 0.0 | 0.0 | 0.00 | 0.00 | 0.00 | 33 | 1017.0 | |
| 20260903192656 | 80 | 0.0 | 0.0 | 0.00 | 0.00 | 0.00 | 31 | 1017.1 | |
| 20260903192153 | 80 | 0.0 | 0.0 | 0.00 | 0.00 | 0.00 | 31 | 1017.0 | |
| 20260903191650 | 80 | 0.0 | 0.0 | 0.00 | 0.00 | 0.00 | 31 | 1017.1 | |
| 20260903191148 | 79 | 0.0 | 0.0 | 0.00 | 0.00 | 0.00 | 32 | 1017.0 | |
| 20260903190645 | 77 | 0.0 | 0.0 | 0.00 | 0.00 | 0.00 | 33 | 1017.1 | |
| 20260903190143 | 77 | 0.0 | 0.0 | 0.00 | 0.00 | 0.00 | 34 | 1017.1 | |
| 20260903185640 | 76 | 0.0 | 0.0 | 0.00 | 0.00 | 0.00 | 34 | 1017.1 | |
| 20260903185138 | 77 | 0.0 | 0.0 | 0.00 | 0.00 | 0.00 | 33 | 1017.1 | |
| 20260903184636 | 77 | 0.0 | 0.0 | 0.00 | 0.00 | 0.00 | 32 | 1017.1 | |
| 20260903184133 | 80 | 0.0 | 0.0 | 0.00 | 0.00 | 0.00 | 30 | 1017.2 | |
| 20260903183632 | 80 | 0.0 | 0.0 | 0.00 | 0.00 | 0.00 | 29 | 1017.3 | |
| 20260903183129 | 81 | 0.0 | 0.0 | 0.00 | 0.00 | 0.00 | 28 | 1017.3 | |
| 20260903182627 | 82 | 0.0 | 0.0 | 0.00 | 0.00 | 0.00 | 28 | 1017.2 | |
| 20260903182125 | 80 | 0.0 | 0.0 | 0.00 | 0.00 | 0.00 | 30 | 1017.2 | |
| 20260903181622 | 80 | 0.0 | 0.0 | 0.00 | 0.00 | 0.00 | 28 | 1017.2 | |
| 20260903181120 | 78 | 0.0 | 0.0 | 0.00 | 0.00 | 0.00 | 29 | 1017.3 | |
| 20260903180618 | 80 | 0.0 | 0.0 | 0.00 | 0.00 | 0.00 | 28 | 1017.3 | |
| 20260903180116 | 78 | 0.0 | 0.0 | 0.00 | 0.00 | 0.00 | 29 | 1017.3 | |
| 20260903175613 | 78 | 0.0 | 0.0 | 0.00 | 0.00 | 0.00 | 29 | 1017.4 | |
| 20260903175111 | 80 | 0.0 | 0.0 | 0.00 | 0.00 | 0.00 | 27 | 1017.5 | |
| 20260903174610 | 80 | 0.0 | 0.0 | 0.00 | 0.00 | 0.00 | 28 | 1017.6 | |
| 20260903174107 | 81 | 0.0 | 0.0 | 0.00 | 0.00 | 0.00 | 27 | 1017.6 | |
| 20260903173606 | 80 | 0.0 | 0.0 | 0.00 | 0.00 | 0.00 | 27 | 1017.6 | |
| 20260903173104 | 77 | 0.0 | 0.0 | 0.00 | 0.00 | 0.00 | 28 | 1017.6 | |
| 20260903172601 | 80 | 0.0 | 0.0 | 0.00 | 0.00 | 0.00 | 26 | 1017.8 | |
| 20260903172058 | 79 | 0.0 | 0.0 | 0.00 | 0.00 | 0.00 | 27 | 1017.8 | |
| 20260903171556 | 81 | 0.0 | 0.0 | 0.00 | 0.00 | 0.00 | 25 | 1017.9 | |
| 20260903171054 | 80 | 0.0 | 0.0 | 0.00 | 0.00 | 0.00 | 25 | 1018.0 | |
| 20260903170552 | 80 | 0.0 | 0.0 | 0.00 | 0.00 | 0.00 | 25 | 1018.0 | |
| 20260903170051 | 80 | 0.0 | 0.0 | 0.00 | 0.00 | 0.00 | 24 | 1018.0 | |
| 20260903165549 | 79 | 0.0 | 0.0 | 0.00 | 0.00 | 0.00 | 25 | 1018.1 | |
| 20260903165047 | 79 | 0.0 | 0.0 | 0.00 | 0.00 | 0.00 | 24 | 1018.2 | |
| 20260903164545 | 78 | 0.0 | 0.0 | 0.00 | 0.00 | 0.00 | 23 | 1018.3 | |
| 20260903164040 | 80 | 0.0 | 0.0 | 0.00 | 0.00 | 0.00 | 23 | 1018.4 | |
| 20260903163538 | 80 | 0.0 | 0.0 | 0.00 | 0.00 | 0.00 | 22 | 1018.4 | |
| 20260903163035 | 80 | 0.0 | 0.0 | 0.00 | 0.00 | 0.00 | 22 | 1018.5 | |
| 20260903162533 | 80 | 0.0 | 0.0 | 0.00 | 0.00 | 0.00 | 23 | 1018.5 | |
| 20260903162030 | 81 | 0.0 | 0.0 | 0.00 | 0.00 | 0.00 | 23 | 1018.6 | |
| 20260903161528 | 80 | 0.0 | 0.0 | 0.00 | 0.00 | 0.00 | 23 | 1018.6 | |
| 20260903161026 | 79 | 0.0 | 0.0 | 0.00 | 0.00 | 0.00 | 24 | 1018.6 | |
| 20260903160524 | 79 | 0.0 | 0.0 | 0.00 | 0.00 | 0.00 | 23 | 1018.7 | |
| 20260903160022 | 81 | 0.0 | 0.0 | 0.00 | 0.00 | 0.00 | 23 | 1018.8 | |
| 20260903155519 | 79 | 0.0 | 0.0 | 0.00 | 0.00 | 0.00 | 25 | 1018.8 | |
| 20260903155018 | 78 | 0.0 | 0.0 | 0.00 | 0.00 | 0.00 | 25 | 1018.9 | |
| 20260903154516 | 77 | 0.0 | 0.0 | 0.00 | 0.00 | 0.00 | 25 | 1019.0 | |
| 20260903154014 | 78 | 0.0 | 0.0 | 0.00 | 0.00 | 0.00 | 25 | 1019.0 | |
| 20260903153513 | 77 | 0.0 | 0.0 | 0.00 | 0.00 | 0.00 | 24 | 1019.1 | |
| 20260903153011 | 77 | 0.0 | 0.0 | 0.00 | 0.00 | 0.00 | 24 | 1019.1 | |
| 20260903152508 | 77 | 0.0 | 0.0 | 0.00 | 0.00 | 0.00 | 26 | 1019.2 | |
| 20260903152006 | 77 | 0.0 | 0.0 | 0.00 | 0.00 | 0.00 | 28 | 1019.3 | |
| 20260903151504 | 78 | 0.0 | 0.0 | 0.00 | 0.00 | 0.00 | 27 | 1019.4 | |
| 20260903151002 | 76 | 0.0 | 0.0 | 0.00 | 0.00 | 0.00 | 27 | 1019.5 | |
| 20260903150500 | 77 | 0.0 | 0.0 | 0.00 | 0.00 | 0.00 | 27 | 1019.6 | |
| 20260903145959 | 77 | 0.0 | 0.0 | 0.00 | 0.00 | 0.00 | 28 | 1019.6 | |
| 20260903145457 | 78 | 0.0 | 0.0 | 0.00 | 0.00 | 0.00 | 27 | 1019.6 | |
| 20260903144955 | 77 | 0.0 | 0.0 | 0.00 | 0.00 | 0.00 | 27 | 1019.6 | |
| 20260903144453 | 77 | 0.0 | 0.0 | 0.00 | 0.00 | 0.00 | 27 | 1019.6 | |
| 20260903143951 | 77 | 0.0 | 0.0 | 0.00 | 0.00 | 0.00 | 28 | 1019.7 | |
| 20260903143449 | 78 | 0.0 | 0.0 | 0.00 | 0.00 | 0.00 | 31 | 1019.7 | |
| 20260903142948 | 76 | 0.0 | 0.0 | 0.00 | 0.00 | 0.00 | 32 | 1019.8 | |
| 20260903142446 | 76 | 0.0 | 0.0 | 0.00 | 0.00 | 0.00 | 32 | 1019.9 | |
| 20260903141944 | 75 | 0.0 | 0.0 | 0.00 | 0.00 | 0.00 | 33 | 1020.0 | |
| 20260903141442 | 75 | 0.0 | 0.0 | 0.00 | 0.00 | 0.00 | 33 | 1020.0 | |
| 20260903140940 | 75 | 0.0 | 0.0 | 0.00 | 0.00 | 0.00 | 33 | 1020.0 | |
| 20260903140438 | 75 | 0.0 | 0.0 | 0.00 | 0.00 | 0.00 | 34 | 1020.1 | |
| 20260903135937 | 75 | 0.0 | 0.0 | 0.00 | 0.00 | 0.00 | 34 | 1020.1 | |
| 20260903135435 | 74 | 0.0 | 0.0 | 0.00 | 0.00 | 0.00 | 35 | 1020.1 | |
| 20260903134933 | 73 | 0.0 | 0.0 | 0.00 | 0.00 | 0.00 | 35 | 1020.1 | |
| 20260903134431 | 73 | 0.0 | 0.0 | 0.00 | 0.00 | 0.00 | 35 | 1020.1 | |
| 20260903133929 | 73 | 0.0 | 0.0 | 0.00 | 0.00 | 0.00 | 37 | 1020.2 | |
| 20260903133428 | 73 | 0.0 | 0.0 | 0.00 | 0.00 | 0.00 | 37 | 1020.2 | |
| 20260903132926 | 72 | 0.0 | 0.0 | 0.00 | 0.00 | 0.00 | 40 | 1020.2 | |
| 20260903132424 | 73 | 0.0 | 0.0 | 0.00 | 0.00 | 0.00 | 40 | 1020.3 | |
| 20260903131922 | 71 | 0.0 | 0.0 | 0.00 | 0.00 | 0.00 | 42 | 1020.3 | |
| 20260903131420 | 72 | 0.0 | 0.0 | 0.00 | 0.00 | 0.00 | 43 | 1020.3 | |
| 20260903130918 | 72 | 0.0 | 0.0 | 0.00 | 0.00 | 0.00 | 44 | 1020.4 | |
| 20260903130416 | 71 | 0.0 | 0.0 | 0.00 | 0.00 | 0.00 | 44 | 1020.4 | |
| 20260903125913 | 71 | 0.0 | 0.0 | 0.00 | 0.00 | 0.00 | 45 | 1020.5 | |
| 20260903125411 | 70 | 0.0 | 0.0 | 0.00 | 0.00 | 0.00 | 47 | 1020.5 | |
| 20260903124908 | 69 | 0.0 | 0.0 | 0.00 | 0.00 | 0.00 | 48 | 1020.4 | |
| 20260903124405 | 69 | 0.0 | 0.0 | 0.00 | 0.00 | 0.00 | 49 | 1020.5 | |
| 20260903123903 | 69 | 0.0 | 0.0 | 0.00 | 0.00 | 0.00 | 51 | 1020.5 | |
| 20260903123400 | 68 | 0.0 | 0.0 | 0.00 | 0.00 | 0.00 | 54 | 1020.6 | |
| 20260903122857 | 68 | 0.0 | 0.0 | 0.00 | 0.00 | 0.00 | 53 | 1020.7 | |
| 20260903122355 | 67 | 0.0 | 0.0 | 0.00 | 0.00 | 0.00 | 54 | 1020.7 | |
| 20260903121851 | 68 | 0.0 | 0.0 | 0.00 | 0.00 | 0.00 | 55 | 1020.8 | |
| 20260903121348 | 67 | 0.0 | 0.0 | 0.00 | 0.00 | 0.00 | 56 | 1020.8 | |
| 20260903120846 | 65 | 0.0 | 0.0 | 0.00 | 0.00 | 0.00 | 57 | 1020.8 | |
| 20260903120344 | 63 | 0.0 | 0.0 | 0.00 | 0.00 | 0.00 | 60 | 1020.8 | |
| 20260903115840 | 63 | 0.0 | 0.0 | 0.00 | 0.00 | 0.00 | 63 | 1020.8 | |
| 20260903115338 | 65 | 0.0 | 0.0 | 0.00 | 0.00 | 0.00 | 60 | 1020.8 | |
| 20260903114836 | 64 | 0.0 | 0.0 | 0.00 | 0.00 | 0.00 | 62 | 1020.9 | |
| 20260903114334 | 65 | 0.0 | 0.0 | 0.00 | 0.00 | 0.00 | 60 | 1020.8 | |
| 20260903113833 | 63 | 0.0 | 0.0 | 0.00 | 0.00 | 0.00 | 63 | 1020.8 | |
| 20260903113332 | 63 | 0.0 | 0.0 | 0.00 | 0.00 | 0.00 | 63 | 1020.7 | |
| 20260903112830 | 64 | 0.0 | 0.0 | 0.00 | 0.00 | 0.00 | 63 | 1020.8 | |
| 20260903112328 | 62 | 0.0 | 0.0 | 0.00 | 0.00 | 0.00 | 67 | 1020.8 | |
| 20260903111827 | 61 | 0.0 | 0.0 | 0.00 | 0.00 | 0.00 | 69 | 1020.9 | |
| 20260903111325 | 62 | 0.0 | 0.0 | 0.00 | 0.00 | 0.00 | 67 | 1021.0 | |
| 20260903110823 | 62 | 0.0 | 0.0 | 0.00 | 0.00 | 0.00 | 68 | 1021.0 | |
| 20260903110321 | 63 | 0.0 | 0.0 | 0.00 | 0.00 | 0.00 | 66 | 1020.9 | |
| 20260903105819 | 63 | 0.0 | 0.0 | 0.00 | 0.00 | 0.00 | 66 | 1020.9 | |
| 20260903105317 | 63 | 0.0 | 0.0 | 0.00 | 0.00 | 0.00 | 66 | 1020.9 | |
| 20260903104816 | 63 | 0.0 | 0.0 | 0.00 | 0.00 | 0.00 | 67 | 1020.9 | |
| 20260903104314 | 62 | 0.0 | 0.0 | 0.00 | 0.00 | 0.00 | 69 | 1020.8 | |
| 20260903103812 | 59 | 0.0 | 0.0 | 0.00 | 0.00 | 0.00 | 76 | 1020.9 | |
| 20260903103311 | 54 | 0.0 | 0.0 | 0.00 | 0.00 | 0.00 | 91 | 1020.9 | |
| 20260903102809 | 52 | 0.0 | 0.0 | 0.00 | 0.00 | 0.00 | 92 | 1020.9 | |
| 20260903102308 | 53 | 0.0 | 0.0 | 0.00 | 0.00 | 0.00 | 92 | 1020.9 | |
| 20260903101806 | 52 | 0.0 | 0.0 | 0.00 | 0.00 | 0.00 | 95 | 1020.9 | |
| 20260903101304 | 51 | 0.0 | 0.0 | 0.00 | 0.00 | 0.00 | 95 | 1020.9 | |
| 20260903100803 | 51 | 0.0 | 0.0 | 0.00 | 0.00 | 0.00 | 95 | 1021.0 | |
| 20260903100301 | 51 | 0.0 | 0.0 | 0.00 | 0.00 | 0.00 | 94 | 1021.0 | |
| 20260903095759 | 51 | 0.0 | 0.0 | 0.00 | 0.00 | 0.00 | 94 | 1021.0 | |
| 20260903095258 | 51 | 0.0 | 0.0 | 0.00 | 0.00 | 0.00 | 94 | 1021.0 | |
| 20260903094756 | 51 | 0.0 | 0.0 | 0.00 | 0.00 | 0.00 | 94 | 1021.0 | |
| 20260903094255 | 51 | 0.0 | 0.0 | 0.00 | 0.00 | 0.00 | 94 | 1021.0 | |
| 20260903093753 | 51 | 0.0 | 0.0 | 0.00 | 0.00 | 0.00 | 93 | 1020.9 | |
| 20260903093251 | 52 | 0.0 | 0.0 | 0.00 | 0.00 | 0.00 | 93 | 1020.9 | |
| 20260903092750 | 52 | 0.0 | 0.0 | 0.00 | 0.00 | 0.00 | 94 | 1020.8 | |
| 20260903092248 | 51 | 0.0 | 0.0 | 0.00 | 0.00 | 0.00 | 93 | 1020.8 | |
| 20260903091746 | 52 | 0.0 | 0.0 | 0.00 | 0.00 | 0.00 | 93 | 1020.7 | |
| 20260903091244 | 52 | 0.0 | 0.0 | 0.00 | 0.00 | 0.00 | 92 | 1020.7 | |
| 20260903090742 | 52 | 0.0 | 0.0 | 0.00 | 0.00 | 0.00 | 92 | 1020.7 | |
| 20260903090241 | 52 | 0.0 | 0.0 | 0.00 | 0.00 | 0.00 | 92 | 1020.7 | |
| 20260903085739 | 52 | 0.0 | 0.0 | 0.00 | 0.00 | 0.00 | 92 | 1020.7 | |
| 20260903085238 | 53 | 0.0 | 0.0 | 0.00 | 0.00 | 0.00 | 91 | 1020.7 | |
| 20260903084736 | 53 | 0.0 | 0.0 | 0.00 | 0.00 | 0.00 | 91 | 1020.7 | |
| 20260903084235 | 53 | 0.0 | 0.0 | 0.00 | 0.00 | 0.00 | 90 | 1020.7 | |
| 20260903083734 | 53 | 0.0 | 0.0 | 0.00 | 0.00 | 0.00 | 90 | 1020.7 | |
| 20260903083232 | 53 | 0.0 | 0.0 | 0.00 | 0.00 | 0.00 | 90 | 1020.6 | |
| 20260903082730 | 53 | 0.0 | 0.0 | 0.00 | 0.00 | 0.00 | 90 | 1020.6 | |
| 20260903082229 | 53 | 0.0 | 0.0 | 0.00 | 0.00 | 0.00 | 90 | 1020.5 | |
| 20260903081727 | 53 | 0.0 | 0.0 | 0.00 | 0.00 | 0.00 | 90 | 1020.6 | |
| 20260903081226 | 53 | 0.0 | 0.0 | 0.00 | 0.00 | 0.00 | 90 | 1020.5 | |
| 20260903080724 | 54 | 0.0 | 0.0 | 0.00 | 0.00 | 0.00 | 91 | 1020.5 | |
| 20260903080223 | 54 | 0.0 | 0.0 | 0.00 | 0.00 | 0.00 | 92 | 1020.5 | |
| 20260903075721 | 54 | 0.0 | 0.0 | 0.00 | 0.00 | 0.00 | 92 | 1020.5 | |
| 20260903075220 | 54 | 0.0 | 0.0 | 0.00 | 0.00 | 0.00 | 92 | 1020.5 | |
| 20260903074718 | 54 | 0.0 | 0.0 | 0.00 | 0.00 | 0.00 | 92 | 1020.5 | |
| 20260903074217 | 54 | 0.0 | 0.0 | 0.00 | 0.00 | 0.00 | 92 | 1020.5 | |
| 20260903073715 | 54 | 0.0 | 0.0 | 0.00 | 0.00 | 0.00 | 93 | 1020.6 | |
| 20260903073213 | 54 | 0.0 | 0.0 | 0.00 | 0.00 | 0.00 | 93 | 1020.5 | |
| 20260903072712 | 54 | 0.0 | 0.0 | 0.00 | 0.00 | 0.00 | 93 | 1020.5 | |
| 20260903072210 | 54 | 0.0 | 0.0 | 0.00 | 0.00 | 0.00 | 94 | 1020.5 | |
| 20260903071709 | 54 | 0.0 | 0.0 | 0.00 | 0.00 | 0.00 | 94 | 1020.6 | |
| 20260903071207 | 54 | 0.0 | 0.0 | 0.00 | 0.00 | 0.00 | 94 | 1020.5 | |
| 20260903070706 | 54 | 0.0 | 0.0 | 0.00 | 0.00 | 0.00 | 94 | 1020.5 | |
| 20260903070204 | 55 | 0.0 | 0.0 | 0.00 | 0.00 | 0.00 | 94 | 1020.5 | |
| 20260903065703 | 55 | 0.0 | 0.0 | 0.00 | 0.00 | 0.00 | 94 | 1020.6 | |
| 20260903065201 | 55 | 0.0 | 0.0 | 0.00 | 0.00 | 0.00 | 94 | 1020.6 | |
| 20260903064659 | 55 | 0.0 | 0.0 | 0.00 | 0.00 | 0.00 | 94 | 1020.6 | |
| 20260903064158 | 55 | 0.0 | 0.0 | 0.00 | 0.00 | 0.00 | 94 | 1020.7 | |
| 20260903063656 | 55 | 0.0 | 0.0 | 0.00 | 0.00 | 0.00 | 94 | 1020.7 | |
| 20260903063154 | 55 | 0.0 | 0.0 | 0.00 | 0.00 | 0.00 | 94 | 1020.7 | |
| 20260903062652 | 55 | 0.0 | 0.0 | 0.00 | 0.00 | 0.00 | 94 | 1020.7 | |
| 20260903062150 | 55 | 0.0 | 0.0 | 0.00 | 0.00 | 0.00 | 94 | 1020.7 | |
| 20260903061649 | 55 | 0.0 | 0.0 | 0.00 | 0.00 | 0.00 | 94 | 1020.7 | |
| 20260903061147 | 55 | 0.0 | 0.0 | 0.00 | 0.00 | 0.00 | 94 | 1020.7 | |
| 20260903060645 | 55 | 0.0 | 0.0 | 0.00 | 0.00 | 0.00 | 94 | 1020.8 | |
| 20260903060144 | 55 | 0.0 | 0.0 | 0.00 | 0.00 | 0.00 | 94 | 1020.8 | |
| 20260903055642 | 55 | 0.0 | 0.0 | 0.00 | 0.00 | 0.00 | 95 | 1020.8 | |
| 20260903055141 | 55 | 0.0 | 0.0 | 0.00 | 0.00 | 0.00 | 95 | 1020.8 | |
| 20260903054639 | 55 | 0.0 | 0.0 | 0.00 | 0.00 | 0.00 | 95 | 1020.8 | |
| 20260903054137 | 55 | 0.0 | 0.0 | 0.00 | 0.00 | 0.00 | 95 | 1020.9 | |
| 20260903053636 | 55 | 0.0 | 0.0 | 0.00 | 0.00 | 0.00 | 95 | 1020.9 | |
| 20260903053134 | 55 | 0.0 | 0.0 | 0.00 | 0.00 | 0.00 | 95 | 1021.0 | |
| 20260903052633 | 55 | 0.0 | 0.0 | 0.00 | 0.00 | 0.00 | 95 | 1021.0 | |
| 20260903052131 | 55 | 0.0 | 0.0 | 0.00 | 0.00 | 0.00 | 94 | 1021.0 | |
| 20260903051629 | 55 | 0.0 | 0.0 | 0.00 | 0.00 | 0.00 | 94 | 1021.1 | |
| 20260903051127 | 56 | 0.0 | 0.0 | 0.00 | 0.00 | 0.00 | 94 | 1021.1 | |
| 20260903050626 | 56 | 0.0 | 0.0 | 0.00 | 0.00 | 0.00 | 94 | 1021.2 | |
| 20260903050125 | 56 | 0.0 | 0.0 | 0.00 | 0.00 | 0.00 | 93 | 1021.3 | |
| 20260903045623 | 56 | 0.0 | 0.0 | 0.00 | 0.00 | 0.00 | 93 | 1021.4 | |
| 20260903045121 | 56 | 0.0 | 0.0 | 0.00 | 0.00 | 0.00 | 93 | 1021.4 | |
| 20260903044619 | 56 | 0.0 | 0.0 | 0.00 | 0.00 | 0.00 | 93 | 1021.5 | |
| 20260903044118 | 56 | 0.0 | 0.0 | 0.00 | 0.00 | 0.00 | 94 | 1021.5 | |
| 20260903043616 | 56 | 0.0 | 0.0 | 0.00 | 0.00 | 0.00 | 94 | 1021.6 | |
| 20260903043114 | 56 | 0.0 | 0.0 | 0.00 | 0.00 | 0.00 | 94 | 1021.6 | |
| 20260903042613 | 56 | 0.0 | 0.0 | 0.00 | 0.00 | 0.00 | 93 | 1021.6 | |
| 20260903042112 | 56 | 0.0 | 0.0 | 0.00 | 0.00 | 0.00 | 94 | 1021.7 | |
| 20260903041610 | 56 | 0.0 | 0.0 | 0.00 | 0.00 | 0.00 | 94 | 1021.7 | |
| 20260903041109 | 56 | 0.0 | 0.0 | 0.00 | 0.00 | 0.00 | 93 | 1021.7 | |
| 20260903040607 | 56 | 0.0 | 0.0 | 0.00 | 0.00 | 0.00 | 93 | 1021.8 | |
| 20260903040105 | 56 | 0.0 | 0.0 | 0.00 | 0.00 | 0.00 | 93 | 1021.9 | |
| 20260903035603 | 56 | 0.0 | 0.0 | 0.00 | 0.00 | 0.00 | 93 | 1021.9 | |
| 20260903035102 | 56 | 0.0 | 0.0 | 0.00 | 0.00 | 0.00 | 94 | 1022.0 | |
| 20260903034600 | 56 | 0.0 | 0.0 | 0.00 | 0.00 | 0.00 | 94 | 1022.0 | |
| 20260903034059 | 56 | 0.0 | 0.0 | 0.00 | 0.00 | 0.00 | 94 | 1022.0 | |
| 20260903033557 | 56 | 0.0 | 0.0 | 0.00 | 0.00 | 0.00 | 94 | 1022.1 | |
| 20260903033055 | 56 | 0.0 | 0.0 | 0.00 | 0.00 | 0.00 | 94 | 1022.1 | |
| 20260903032554 | 56 | 0.0 | 0.0 | 0.00 | 0.00 | 0.00 | 94 | 1022.1 | |
| 20260903032052 | 56 | 0.0 | 0.0 | 0.00 | 0.00 | 0.00 | 95 | 1022.2 | |
| 20260903031550 | 56 | 0.0 | 0.0 | 0.00 | 0.00 | 0.00 | 94 | 1022.2 | |
| 20260903031049 | 56 | 0.0 | 0.0 | 0.00 | 0.00 | 0.00 | 94 | 1022.2 | |
| 20260903030547 | 56 | 0.0 | 0.0 | 0.00 | 0.00 | 0.00 | 94 | 1022.3 | |
| 20260903030045 | 56 | 0.0 | 0.0 | 0.00 | 0.00 | 0.00 | 94 | 1022.4 | |
| 20260903025543 | 56 | 0.0 | 0.0 | 0.00 | 0.00 | 0.00 | 94 | 1022.4 | |
| 20260903025042 | 57 | 0.0 | 0.0 | 0.00 | 0.00 | 0.00 | 95 | 1022.4 | |
| 20260903024541 | 57 | 0.0 | 0.0 | 0.00 | 0.00 | 0.00 | 95 | 1022.4 | |
| 20260903024039 | 56 | 0.0 | 0.0 | 0.00 | 0.00 | 0.00 | 95 | 1022.5 | |
| 20260903023538 | 56 | 0.0 | 0.0 | 0.00 | 0.00 | 0.00 | 95 | 1022.5 | |
| 20260903023036 | 57 | 0.0 | 0.0 | 0.00 | 0.00 | 0.00 | 95 | 1022.5 | |
| 20260903022535 | 57 | 0.0 | 0.0 | 0.00 | 0.00 | 0.00 | 95 | 1022.5 | |
| 20260903022033 | 57 | 0.0 | 0.0 | 0.00 | 0.00 | 0.00 | 95 | 1022.5 | |
| 20260903021532 | 57 | 0.0 | 0.0 | 0.00 | 0.00 | 0.00 | 96 | 1022.6 | |
| 20260903021030 | 57 | 0.0 | 0.0 | 0.00 | 0.00 | 0.00 | 96 | 1022.6 | |
| 20260903020528 | 57 | 0.0 | 0.0 | 0.00 | 0.00 | 0.00 | 96 | 1022.6 | |
| 20260903020027 | 57 | 0.0 | 0.0 | 0.00 | 0.00 | 0.00 | 96 | 1022.6 | |
| 20260903015525 | 57 | 0.0 | 0.0 | 0.00 | 0.00 | 0.00 | 96 | 1022.6 | |
| 20260903015023 | 56 | 0.0 | 0.0 | 0.00 | 0.00 | 0.00 | 96 | 1022.6 | |
| 20260903014521 | 56 | 0.0 | 0.0 | 0.00 | 0.00 | 0.00 | 96 | 1022.6 | |
| 20260903014019 | 57 | 0.0 | 0.0 | 0.00 | 0.00 | 0.00 | 96 | 1022.6 | |
| 20260903013517 | 57 | 0.0 | 0.0 | 0.00 | 0.00 | 0.00 | 96 | 1022.6 | |
| 20260903013015 | 57 | 0.0 | 0.0 | 0.00 | 0.00 | 0.00 | 96 | 1022.7 | |
| 20260903012514 | 56 | 0.0 | 0.0 | 0.00 | 0.00 | 0.00 | 96 | 1022.8 | |
| 20260903012012 | 57 | 0.0 | 0.0 | 0.00 | 0.00 | 0.00 | 97 | 1022.8 | |
| 20260903011510 | 56 | 0.0 | 0.0 | 0.00 | 0.00 | 0.00 | 97 | 1022.8 | |
| 20260903011008 | 56 | 0.0 | 0.0 | 0.00 | 0.00 | 0.00 | 97 | 1022.9 | |
| 20260903010506 | 56 | 0.0 | 0.0 | 0.00 | 0.00 | 0.00 | 97 | 1022.9 | |
| 20260903010003 | 56 | 0.0 | 0.0 | 0.00 | 0.00 | 0.00 | 97 | 1022.9 | |
| 20260903005501 | 56 | 0.0 | 0.0 | 0.00 | 0.00 | 0.00 | 97 | 1022.9 | |
| 20260903005000 | 56 | 0.0 | 0.0 | 0.00 | 0.00 | 0.00 | 97 | 1022.8 | |
| 20260903004458 | 56 | 0.0 | 0.0 | 0.00 | 0.00 | 0.00 | 97 | 1022.7 | |
| 20260903003956 | 56 | 0.0 | 0.0 | 0.00 | 0.00 | 0.00 | 97 | 1022.7 | |
| 20260903003455 | 56 | 0.0 | 0.0 | 0.00 | 0.00 | 0.00 | 97 | 1022.7 | |
| 20260903002952 | 56 | 0.0 | 0.0 | 0.00 | 0.00 | 0.00 | 98 | 1022.6 | |
| 20260903002450 | 56 | 0.0 | 0.0 | 0.00 | 0.00 | 0.00 | 98 | 1022.6 | |
| 20260903001948 | 56 | 0.0 | 0.0 | 0.00 | 0.00 | 0.00 | 98 | 1022.7 | |
| 20260903001446 | 56 | 0.0 | 0.0 | 0.00 | 0.00 | 0.00 | 99 | 1022.7 | |
| 20260903000944 | 56 | 0.0 | 0.0 | 0.00 | 0.00 | 0.00 | 99 | 1022.7 | |
| 20260903000442 | 55 | 0.0 | 0.0 | 0.00 | 0.00 | 0.00 | 99 | 1022.6 | |
| 20260902235940 | 55 | 0.0 | 0.0 | 0.00 | 0.00 | 0.00 | 99 | 1022.7 | |
| 20260902235438 | 55 | 0.0 | 0.0 | 0.00 | 0.00 | 0.00 | 99 | 1022.7 | |
| 20260902234935 | 55 | 0.0 | 0.0 | 0.00 | 0.00 | 0.00 | 99 | 1022.6 | |
| 20260902234433 | 55 | 0.0 | 0.0 | 0.00 | 0.00 | 0.00 | 98 | 1022.6 | |
| 20260902233931 | 55 | 0.0 | 0.0 | 0.00 | 0.00 | 0.00 | 98 | 1022.5 | |
| 20260902233429 | 55 | 0.0 | 0.0 | 0.00 | 0.00 | 0.00 | 98 | 1022.6 | |
| 20260902232927 | 55 | 0.0 | 0.0 | 0.00 | 0.00 | 0.00 | 97 | 1022.5 | |
| 20260902232425 | 55 | 0.0 | 0.0 | 0.00 | 0.00 | 0.00 | 97 | 1022.5 | |
| 20260902231924 | 55 | 0.0 | 0.0 | 0.00 | 0.00 | 0.00 | 97 | 1022.5 | |
| 20260902231422 | 55 | 0.0 | 0.0 | 0.00 | 0.00 | 0.00 | 96 | 1022.4 | |
| 20260902230919 | 56 | 0.0 | 0.0 | 0.00 | 0.00 | 0.00 | 96 | 1022.5 | |
| 20260902230418 | 56 | 0.0 | 0.0 | 0.00 | 0.00 | 0.00 | 95 | 1022.5 | |
| 20260902225915 | 56 | 0.0 | 0.0 | 0.00 | 0.00 | 0.00 | 96 | 1022.5 | |
| 20260902225413 | 56 | 0.0 | 0.0 | 0.00 | 0.00 | 0.00 | 96 | 1022.5 | |
| 20260902224912 | 56 | 0.0 | 0.0 | 0.00 | 0.00 | 0.00 | 96 | 1022.4 | |
| 20260902224410 | 56 | 0.0 | 0.0 | 0.00 | 0.00 | 0.00 | 95 | 1022.4 | |
| 20260902223908 | 56 | 0.0 | 0.0 | 0.00 | 0.00 | 0.00 | 96 | 1022.4 | |
| 20260902223406 | 56 | 0.0 | 0.0 | 0.00 | 0.00 | 0.00 | 95 | 1022.3 | |
| 20260902222904 | 56 | 0.0 | 0.0 | 0.00 | 0.00 | 0.00 | 95 | 1022.2 | |
| 20260902222402 | 56 | 0.0 | 0.0 | 0.00 | 0.00 | 0.00 | 95 | 1022.2 | |
| 20260902221900 | 56 | 0.0 | 0.0 | 0.00 | 0.00 | 0.00 | 95 | 1022.2 | |
| 20260902221358 | 56 | 0.0 | 0.0 | 0.00 | 0.00 | 0.00 | 95 | 1022.1 | |
| 20260902220857 | 56 | 0.0 | 0.0 | 0.00 | 0.00 | 0.00 | 95 | 1022.1 | |
| 20260902220355 | 56 | 0.0 | 0.0 | 0.00 | 0.00 | 0.00 | 95 | 1022.0 | |
| 20260902215853 | 56 | 0.0 | 0.0 | 0.00 | 0.00 | 0.00 | 94 | 1022.0 | |
| 20260902215351 | 57 | 0.0 | 0.0 | 0.00 | 0.00 | 0.00 | 94 | 1021.9 | |
| 20260902214849 | 57 | 0.0 | 0.0 | 0.00 | 0.00 | 0.00 | 93 | 1021.9 | |
| 20260902214348 | 57 | 0.0 | 0.0 | 0.00 | 0.00 | 0.00 | 93 | 1021.9 | |
| 20260902213846 | 57 | 0.0 | 0.0 | 0.00 | 0.00 | 0.00 | 92 | 1021.9 | |
| 20260902213344 | 57 | 0.0 | 0.0 | 0.00 | 0.00 | 0.00 | 92 | 1021.9 | |
| 20260902212843 | 57 | 0.0 | 0.0 | 0.00 | 0.00 | 0.00 | 92 | 1021.9 | |
| 20260902212341 | 58 | 0.0 | 0.0 | 0.00 | 0.00 | 0.00 | 91 | 1021.8 | |
| 20260902211839 | 58 | 0.0 | 0.0 | 0.00 | 0.00 | 0.00 | 90 | 1021.8 | |
| 20260902211337 | 58 | 0.0 | 0.0 | 0.00 | 0.00 | 0.00 | 89 | 1021.8 | |
| 20260902210835 | 58 | 0.0 | 0.0 | 0.00 | 0.00 | 0.00 | 89 | 1021.8 | |
| 20260902210334 | 58 | 0.0 | 0.0 | 0.00 | 0.00 | 0.00 | 89 | 1021.7 | |
| 20260902205832 | 58 | 0.0 | 0.0 | 0.00 | 0.00 | 0.00 | 88 | 1021.7 | |
| 20260902205330 | 58 | 0.0 | 0.0 | 0.00 | 0.00 | 0.00 | 88 | 1021.7 | |
| 20260902204828 | 59 | 0.0 | 0.0 | 0.00 | 0.00 | 0.00 | 85 | 1021.7 | |
| 20260902204326 | 60 | 0.0 | 0.0 | 0.00 | 0.00 | 0.00 | 83 | 1021.8 | |
| 20260902203824 | 61 | 0.0 | 0.0 | 0.00 | 0.00 | 0.00 | 79 | 1021.8 | |
| 20260902203322 | 61 | 0.0 | 0.0 | 0.00 | 0.00 | 0.00 | 79 | 1021.8 | |
| 20260902202820 | 62 | 0.0 | 0.0 | 0.00 | 0.00 | 0.00 | 75 | 1021.7 | |
| 20260902202319 | 62 | 0.0 | 0.0 | 0.00 | 0.00 | 0.00 | 76 | 1021.7 | |
| 20260902201817 | 63 | 0.0 | 0.0 | 0.00 | 0.00 | 0.00 | 72 | 1021.7 | |
| 20260902201315 | 62 | 0.0 | 0.0 | 0.00 | 0.00 | 0.00 | 75 | 1021.6 | |
| 20260902200813 | 62 | 0.0 | 0.0 | 0.00 | 0.00 | 0.00 | 74 | 1021.5 | |
| 20260902200311 | 65 | 0.0 | 0.0 | 0.00 | 0.00 | 0.00 | 69 | 1021.5 | |
| 20260902195809 | 63 | 0.0 | 0.0 | 0.00 | 0.00 | 0.00 | 74 | 1021.5 |